This is the latest recevied weather packets stored in our database for station/object KY4OP-13. If no packets are shown the sender has not sent any weather packets the latest 10 day(s).
| Time | Temp. | Humidity | Pressure | Rain* | Wind** | Luminosity | Snow |
|---|---|---|---|---|---|---|---|
| 1777728227 | 10.56° C | 60% | 1016.7 hPa | 0 mm | - | - | - |
| 1777727924 | 10.56° C | 59% | 1016.6 hPa | 0 mm | - | - | - |
| 1777727621 | 10.56° C | 64% | 1016.3 hPa | 0 mm | - | - | - |
| 1777727318 | 10° C | 61% | 1016.6 hPa | 0 mm | - | - | - |
| 1777727016 | 9.44° C | 61% | 1016.5 hPa | 0 mm | - | - | - |
| 1777726712 | 9.44° C | 63% | 1016.3 hPa | 0 mm | - | - | - |
| 1777726409 | 9.44° C | 64% | 1016.6 hPa | 0 mm | - | - | - |
| 1777726106 | 9.44° C | 63% | 1016.4 hPa | 0 mm | - | - | - |
| 1777725803 | 9.44° C | 64% | 1016.4 hPa | 0 mm | - | - | - |
| 1777725501 | 9.44° C | 65% | 1016.4 hPa | 0 mm | - | - | - |
| 1777725198 | 9.44° C | 64% | 1016.2 hPa | 0 mm | - | - | - |
| 1777724895 | 9.44° C | 64% | 1016.2 hPa | 0 mm | - | - | - |
| 1777724591 | 9.44° C | 63% | 1016.1 hPa | 0 mm | - | - | - |
| 1777724289 | 9.44° C | 64% | 1016.2 hPa | 0 mm | - | - | - |
| 1777723987 | 9.44° C | 63% | 1016.1 hPa | 0 mm | - | - | - |
| 1777723683 | 9.44° C | 61% | 1016.2 hPa | 0 mm | - | - | - |
| 1777723380 | 9.44° C | 59% | 1016.3 hPa | 0 mm | - | - | - |
| 1777723078 | 9.44° C | 62% | 1016.3 hPa | 0 mm | - | - | - |
| 1777722774 | 9.44° C | 62% | 1016.1 hPa | 0 mm | - | - | - |
| 1777722470 | 8.89° C | 63% | 1016.1 hPa | 0 mm | - | - | - |
| 1777722167 | 8.89° C | 64% | 1016.3 hPa | 0 mm | - | - | - |
| 1777721864 | 8.89° C | 65% | 1016.2 hPa | 0 mm | - | - | - |
| 1777721562 | 8.89° C | 67% | 1016.2 hPa | 0 mm | - | - | - |
| 1777721260 | 8.33° C | 68% | 1016.3 hPa | 0 mm | - | - | - |
| 1777720957 | 8.33° C | 68% | 1016.1 hPa | 0 mm | - | - | - |
* Rain latest hour (hover to see other rain measurements)
** Current wind speed in m/s (hover to see current wind gust speed)